sat.trackr.live / text

‹ back to catalog

STARLINK-2426

NORAD 47836 · 2021-018BB

PAYLOAD ACTIVE UNKNOWN

§ Identity

Operator
Country
US
Launch date
2021-03-11
Launch site
AFETR
Launch vehicle
Mass (kg)
RCS (m²)

Purposes: comms

External: N2YO · Heavens-Above · Gunter

§ Orbital elements

Epoch: 2026-09-11T22:08:18.555072Z

Period
94.01 min
Inclination
53.1596°
Eccentricity
0.0001174
Mean motion
15.31705916 rev/d
Perigee alt
469.9 km
Apogee alt
471.5 km
Semi-major
6,848.9 km
B*
3.2963e-5
RAAN
98.3224°
Arg perigee
92.0858°
Mean anomaly
268.0278°
Rev number
30,523

§ Raw data

STARLINK-24261 47836U 21018BB  26254.92243698  .00000658  00000+0  32963-4 0  99972 47836  53.1596  98.3224 0001174  92.0858 268.0278 15.31705916305236

JSON: /api/v1/satellites/47836 · /tle

For live sub-satellite position, see the globe view (requires WebGL).

§ Visibility from observer

Set your observer location to see the next 7 days of passes ≥ 10°. The values pass through the URL so the page stays shareable.

No JS? Fill the form by hand. The geolocation button needs JavaScript.